CW1795 Weather Reports


Display with metric or nautical units.
time (UTC)temp
F
wind
direction
speed
MPH
gust
MPH
rain 1hr
in
rain 24hr
in
rain mn
in
humidity
%
barometer
mb
20170623084003 48 227 2.0 3.0 0.00 0.00 0.00 58 1030.5
20170623083502 48 228 3.0 3.0 0.00 0.00 0.00 60 1030.6
20170623083003 48 234 3.0 5.0 0.00 0.00 0.00 58 1030.7
20170623081502 49 240 2.0 3.0 0.00 0.00 0.00 58 1030.9
20170623081002 49 240 2.0 5.0 0.00 0.00 0.00 58 1031.0
20170623080502 49 253 2.0 5.0 0.00 0.00 0.00 57 1031.0
20170623080002 49 268 1.0 10.0 0.00 0.00 0.00 57 1031.0
20170623074502 50 275 2.0 7.0 0.00 0.00 0.00 58 1031.1
20170623074002 50 294 3.0 9.0 0.00 0.00 0.00 60 1031.2
20170623073502 50 272 6.0 13.0 0.00 0.00 0.00 58 1031.3
20170623073003 50 272 7.0 13.0 0.00 0.00 0.00 56 1031.1
20170623071502 51 287 3.0 9.0 0.00 0.00 0.00 55 1031.3
20170623071003 51 271 3.0 10.0 0.00 0.00 0.00 56 1031.5
20170623070502 51 281 5.0 13.0 0.00 0.00 0.00 55 1031.5
20170623070003 51 263 3.0 7.0 0.00 0.00 0.00 55 1031.9
20170623064502 52 284 1.0 6.0 0.00 0.00 0.00 56 1032.0
20170623064003 52 284 0.0 3.0 0.00 0.00 0.00 55 1032.0
20170623063501 53 284 2.0 6.0 0.00 0.00 0.00 55 1031.9
20170623063003 53 284 2.0 6.0 0.00 0.00 0.00 56 1031.9
20170623061502 54 283 4.0 6.0 0.00 0.00 0.00 56 1031.8
20170623061003 54 283 2.0 6.0 0.00 0.00 0.00 56 1031.9
20170623060502 54 315 1.0 3.0 0.00 0.00 0.00 56 1031.8
20170623060002 54 315 0.0 6.0 0.00 0.00 0.00 56 1031.9
20170623054502 54 315 1.0 3.0 0.00 0.00 0.00 55 1031.7
20170623054003 54 315 1.0 7.0 0.00 0.00 0.00 56 1031.8
20170623053502 54 315 2.0 3.0 0.00 0.00 0.00 55 1031.7
20170623053003 54 315 2.0 10.0 0.00 0.00 0.00 56 1031.7
20170623051503 54 312 12.0 24.0 0.00 0.00 0.00 54 1031.9
20170623051002 54 344 22.0 24.0 0.00 0.00 0.00 54 1031.9
20170623050502 55 334 18.0 21.0 0.00 0.00 0.00 55 1032.2
20170623050003 55 307 24.0 33.0 0.00 0.00 0.00 55 1032.2
20170623044502 55 337 26.0 30.0 0.00 0.00 0.00 51 1032.1
20170623044002 56 328 28.0 28.0 0.00 0.00 0.00 51 1031.9
20170623043502 56 321 24.0 26.0 0.00 0.00 0.00 49 1031.8
20170623043003 57 324 21.0 31.0 0.00 0.00 0.00 48 1031.8
20170623041502 58 316 32.0 31.0 0.00 0.00 0.00 43 1031.2
20170623041003 58 320 29.0 30.0 0.00 0.00 0.00 42 1031.1
20170623040502 58 330 32.0 43.0 0.00 0.00 0.00 41 1030.9
20170623040003 59 313 32.0 46.0 0.00 0.00 0.00 41 1031.0
20170622231502 72 342 43.0 37.0 0.00 0.00 0.00 27 1026.3
20170622231003 72 342 37.0 37.0 0.00 0.00 0.00 26 1026.1
20170622230503 72 325 31.0 35.0 0.00 0.00 0.00 26 1025.9
20170622230002 72 335 49.0 56.0 0.00 0.00 0.00 26 1025.6
20170622224502 73 346 45.0 43.0 0.00 0.00 0.00 24 1025.5
20170622224003 73 344 36.0 51.0 0.00 0.00 0.00 24 1025.7
20170622223502 73 340 43.0 43.0 0.00 0.00 0.00 23 1025.7
20170622223002 73 335 37.0 43.0 0.00 0.00 0.00 23 1025.8
20170622221502 74 339 42.0 37.0 0.00 0.00 0.00 23 1025.7
20170622221003 74 344 31.0 43.0 0.00 0.00 0.00 24 1025.7
20170622220503 73 345 42.0 43.0 0.00 0.00 0.00 24 1025.7
20170622220004 73 338 55.0 53.0 0.00 0.00 0.00 23 1026.0
20170622214502 73 316 37.0 47.0 0.00 0.00 0.00 24 1025.9
20170622214003 73 341 54.0 51.0 0.00 0.00 0.00 23 1026.0
20170622213503 74 344 43.0 44.0 0.00 0.00 0.00 24 1026.0
20170622213003 74 317 53.0 54.0 0.00 0.00 0.00 24 1026.0
20170622211502 74 0 36.0 33.0 0.00 0.00 0.00 24 1025.9
20170622211003 75 343 30.0 26.0 0.00 0.00 0.00 24 1025.9
20170622210502 75 339 30.0 35.0 0.00 0.00 0.00 24 1025.9
20170622210002 75 343 24.0 33.0 0.00 0.00 0.00 25 1026.1
20170622204502 76 348 20.0 28.0 0.00 0.00 0.00 24 1026.3
20170622204004 75 323 30.0 30.0 0.00 0.00 0.00 25 1026.0
20170622203502 75 349 32.0 30.0 0.00 0.00 0.00 25 1025.9
20170622203003 75 347 26.0 28.0 0.00 0.00 0.00 27 1026.0
20170622201503 75 321 11.0 17.0 0.00 0.00 0.00 26 1026.2
20170622201005 75 321 17.0 26.0 0.00 0.00 0.00 25 1026.3
20170622200502 75 324 11.0 26.0 0.00 0.00 0.00 26 1026.3
20170622200004 74 294 13.0 26.0 0.00 0.00 0.00 26 1026.7
20170622194503 74 310 17.0 24.0 0.00 0.00 0.00 26 1026.7
20170622194003 74 336 24.0 23.0 0.00 0.00 0.00 27 1026.6
20170622193503 73 321 28.0 28.0 0.00 0.00 0.00 27 1026.8
20170622193004 73 340 24.0 31.0 0.00 0.00 0.00 26 1026.7
20170622191503 73 333 32.0 24.0 0.00 0.00 0.00 28 1026.7
20170622191003 74 327 25.0 28.0 0.00 0.00 0.00 27 1026.8
20170622190506 74 315 35.0 35.0 0.00 0.00 0.00 27 1026.8
20170622190003 74 346 16.0 23.0 0.00 0.00 0.00 28 1026.8
20170622184502 73 329 17.0 20.0 0.00 0.00 0.00 29 1026.9
20170622184002 72 282 14.0 21.0 0.00 0.00 0.00 29 1026.8
20170622183503 72 298 21.0 31.0 0.00 0.00 0.00 29 1026.9
20170622183003 72 351 30.0 24.0 0.00 0.00 0.00 29 1026.9
20170622181503 72 311 20.0 28.0 0.00 0.00 0.00 31 1026.9
20170622181003 73 315 14.0 20.0 0.00 0.00 0.00 30 1027.0
20170622180502 72 292 14.0 23.0 0.00 0.00 0.00 33 1027.1
20170622180003 72 335 20.0 21.0 0.00 0.00 0.00 31 1027.1
20170622174503 71 294 11.0 20.0 0.00 0.00 0.00 30 1027.1
20170622174003 71 325 10.0 21.0 0.00 0.00 0.00 32 1027.2
20170622173502 71 313 13.0 20.0 0.00 0.00 0.00 32 1027.3
20170622173004 71 295 18.0 24.0 0.00 0.00 0.00 32 1027.2
20170622171503 70 277 12.0 20.0 0.00 0.00 0.00 34 1027.5
20170622171003 69 294 16.0 23.0 0.00 0.00 0.00 33 1027.4
20170622170503 69 267 7.0 14.0 0.00 0.00 0.00 33 1027.5
20170622170003 69 284 15.0 20.0 0.00 0.00 0.00 33 1027.8
20170622164502 69 298 13.0 20.0 0.00 0.00 0.00 32 1028.0
20170622164004 69 357 28.0 24.0 0.00 0.00 0.00 32 1027.9
20170622163503 68 279 12.0 17.0 0.00 0.00 0.00 33 1027.9
20170622163003 68 305 16.0 30.0 0.00 0.00 0.00 33 1028.0
20170622161502 68 319 21.0 30.0 0.00 0.00 0.00 35 1028.2
20170622161003 68 306 9.0 20.0 0.00 0.00 0.00 34 1028.2
20170622160503 67 291 12.0 20.0 0.00 0.00 0.00 35 1028.2
20170622160002 67 316 14.0 26.0 0.00 0.00 0.00 34 1028.2
20170622154502 66 299 15.0 24.0 0.00 0.00 0.00 35 1028.2
20170622154003 66 305 18.0 20.0 0.00 0.00 0.00 35 1028.2
20170622153503 66 314 21.0 26.0 0.00 0.00 0.00 34 1028.3
20170622153004 66 289 13.0 26.0 0.00 0.00 0.00 35 1028.4
20170622151503 65 308 24.0 24.0 0.00 0.00 0.00 36 1028.5
20170622151003 65 314 18.0 20.0 0.00 0.00 0.00 35 1028.5
20170622150503 65 295 13.0 21.0 0.00 0.00 0.00 37 1028.6
20170622150003 65 261 6.0 24.0 0.00 0.00 0.00 37 1028.5
20170622144502 64 325 12.0 17.0 0.00 0.00 0.00 39 1028.6
20170622144003 64 329 8.0 16.0 0.00 0.00 0.00 42 1028.6
20170622143503 63 289 11.0 14.0 0.00 0.00 0.00 42 1028.6
20170622143003 63 334 10.0 20.0 0.00 0.00 0.00 43 1028.7
20170622141503 62 303 9.0 10.0 0.00 0.00 0.00 46 1028.7
20170622141005 61 306 11.0 20.0 0.00 0.00 0.00 46 1028.5
20170622140503 61 317 11.0 16.0 0.00 0.00 0.00 47 1028.6
20170622140004 60 291 8.0 14.0 0.00 0.00 0.00 48 1028.9
20170622134502 58 275 3.0 6.0 0.00 0.00 0.00 54 1028.9
20170622134003 58 275 1.0 6.0 0.00 0.00 0.00 54 1028.9
20170622133503 57 275 5.0 7.0 0.00 0.00 0.00 54 1028.9
20170622133003 57 275 5.0 17.0 0.00 0.00 0.00 55 1028.8
20170622131503 55 294 6.0 14.0 0.00 0.00 0.00 56 1028.3
20170622131003 55 192 1.0 2.0 0.00 0.00 0.00 57 1028.4
20170622130503 54 192 0.0 2.0 0.00 0.00 0.00 57 1028.4
20170622130003 54 191 0.0 3.0 0.00 0.00 0.00 56 1028.7
20170622124503 53 191 4.0 5.0 0.00 0.00 0.00 60 1028.6
20170622124003 53 191 3.0 5.0 0.00 0.00 0.00 59 1028.6
20170622123503 53 191 1.0 5.0 0.00 0.00 0.00 58 1028.5
20170622123004 52 210 2.0 5.0 0.00 0.00 0.00 58 1028.4
20170622121504 53 216 2.0 3.0 0.00 0.00 0.00 55 1028.3
20170622121003 53 222 2.0 3.0 0.00 0.00 0.00 55 1028.5
20170622120502 53 224 3.0 3.0 0.00 0.00 0.00 52 1028.3
20170622120003 54 254 1.0 2.0 0.00 0.00 0.00 51 1028.2
20170622114503 54 254 2.0 3.0 0.00 0.00 0.00 48 1028.0
20170622114003 54 259 1.0 8.0 0.00 0.00 0.00 47 1028.1
20170622113503 55 236 3.0 5.0 0.00 0.00 0.00 46 1028.0
20170622113003 55 236 3.0 7.0 0.00 0.00 0.00 46 1027.9
20170622111503 55 248 7.0 13.0 0.00 0.00 0.00 45 1027.7
20170622111003 55 279 8.0 16.0 0.00 0.00 0.00 44 1027.6
20170622110503 56 245 7.0 14.0 0.00 0.00 0.00 44 1027.6
20170622110003 56 245 4.0 14.0 0.00 0.00 0.00 43 1027.6
20170622104503 56 265 3.0 8.0 0.00 0.00 0.00 42 1027.4
20170622104003 56 272 6.0 10.0 0.00 0.00 0.00 41 1027.4
20170622103502 57 307 5.0 7.0 0.00 0.00 0.00 41 1027.4
20170622103004 57 291 6.0 17.0 0.00 0.00 0.00 40 1027.3
20170622101503 58 302 15.0 17.0 0.00 0.00 0.00 37 1027.0
20170622101003 58 321 14.0 17.0 0.00 0.00 0.00 37 1027.0
20170622100503 58 301 7.0 24.0 0.00 0.00 0.00 36 1027.1
20170622100004 59 285 12.0 24.0 0.00 0.00 0.00 36 1027.1
20170622094503 59 333 9.0 16.0 0.00 0.00 0.00 34 1027.0
20170622094004 59 304 12.0 14.0 0.00 0.00 0.00 34 1026.8
20170622093502 59 320 13.0 16.0 0.00 0.00 0.00 34 1026.7
20170622093003 60 287 9.0 23.0 0.00 0.00 0.00 34 1026.7
20170622091503 60 312 15.0 17.0 0.00 0.00 0.00 33 1026.8
20170622091004 61 315 11.0 17.0 0.00 0.00 0.00 33 1026.7
20170622090503 61 318 15.0 20.0 0.00 0.00 0.00 33 1026.7
20170622090003 61 316 18.0 23.0 0.00 0.00 0.00 32 1027.1
20170622084504 62 321 20.0 24.0 0.00 0.00 0.00 32 1027.1